Location: �chenoz-la-M�line
(47.6009°N, 6.1354°E)
Time: 15:31:41
(UTC+00:00)

Cosmos 1980 - Pass Details

Date: 11 December 2021
Orbit: 837 x 849 km, 71.0° (Epoch: 20 January)

Event Time Altitude Azimuth Distance (km) Brightness Sun altitude
Rises 17:09:39 0° 338° (NNW) 3,416 6.9 -13.7°
Reaches altitude 10° 17:14:01 10° 9° (N) 2,480 5.9 -14.4°
Enters shadow 17:15:58 12° 30° (NNE) 2,349 5.6 -14.7°
